Showing default

GONETS M 19, 46488

Orbit data source: Space-Track

GONETS M 19, 46488 is a payload satellite owned by Gonets (CIS) in LEO that was launched on Mon, 28 Sep 2020 UTC via a SOYUZ-2-1B launch vehicle from the Plesetsk Missile And Space Complex (PKMTR). Payload-class satellites include a variety of spacecraft equipped with specific instruments for various scientific and technological missions. These include communications satellites like Starlink; space stations such as the ISS; scientific satellites like the Hubble; Earth observation satellites from companies like Planet Labs, Umbra, and HawkEye 360; GPS; miniature CubeSats for education and research; and military/defense satellites.

Loading next visibility...
Identifier
46488, 2020-068C
Orbit
LEO
Last TLE update
12 hours ago
Origin
Manufacturer
Resehetnev ISS
Mission
Operational Commercial Communications
Bus & Motor
STRELA-3M, Unknown motor
Mass
225 kg wet, 225 kg dry
Launch date (UTC)
2020-09-28 (5 years ago)
Launch vehicle
SOYUZ-2-1B
Launch site
Plesetsk Missile And Space Complex (PKMTR)
Object type
Payload
Rocket body
Debris
Shape & HBR
Cyl + 1 Ant, 7 m
Radar Cross Section
1.798 m², Large (>1 m²)

Expand to show TLE details & history

TLE from 12 hours ago
0 GONETS M 19
1 46488U 20068C   25128.88839660  .00000013  00000-0  22518-4 0  9998
2 46488  82.4962 238.6186 0013800 203.5165 156.5285 12.42857399209026
Epoch: 2025-05-08T21:19Z
Definitive object data (Epoch: 2025-05-08T21:19:17.466Z)
Latitude
-0.00003°
Longitude
51.84339°
Altitude
1,507.182 km
Speed
7.107 km/s
True Right ascension
15h 54m 28s
True Declination
0° 00' 00"
Sunlit
Object was in full shadow at TLE epoch
Visualization TLE readout
Latitude
75.00981°
Longitude
-157.78034°
Altitude
1,509.078 km
Speed
7.116 km/s
Apparent Right ascension
04h 35m 18s
Apparent Declination
29° 16' 13"
Sunlit
Object is in daylight
Visualization observer readout
Local Sidereal Time
17:37:21
Azimuth
14.313° NNE
Elevation
-19.327°
Doppler factor
1
Orbital elements
Apogee altitude
1,502.726 km
Perigee altitude
1,481.004 km
Semi-major axis
7,870.002 km
Eccentricity
0.00138
Inclination
82.4962°
RAAN
238.6186°
Arg. of periapsis
203.5165°
True anomaly
156.59139°
Mean anomaly
156.5285°
Eccentric anomaly
156.55995°
Mean motion
3.10871 °/min
BSTAR
0.000022518
Orbital period
115.8 mins
Loading maneuver chart data...
Loading SW <> Apogee altitude chart data...
Loading historical data...
Loading historical data...
Loading historical data...
Loading historical data...
Loading historical data...
Loading historical data...
Loading historical data...

GONETS M 19 Visibility forecast

Observer location: undefined°, undefined°

Span
Click to sort rows by Start time (UTC) header in descending order
Start Az.
Max El. time (UTC)
Max El. Az.
Max El.
End time (UTC)
End Az.
11 mins2025-05-09 17:16:01.768Z22.896° NE2025-05-09 17:21:01.768Z59.936° ENE18.334°2025-05-09 17:27:01.768Z105.122° ESE
16 mins2025-05-09 19:12:01.768Z351.359° N2025-05-09 19:19:01.768Z325.901° NNW44.773°2025-05-09 19:28:01.768Z176.708° S
7 mins2025-05-09 21:12:01.768Z304.878° NW2025-05-09 21:15:01.768Z282.021° WNW15.374°2025-05-09 21:19:01.768Z253.037° W
11 mins2025-05-10 06:18:01.768Z119.898° SE2025-05-10 06:23:01.768Z80.604° E20.793°2025-05-10 06:29:01.768Z35.482° NE
15 mins2025-05-10 08:12:01.768Z195.575° SSW2025-05-10 08:19:01.768Z283.819° WNW43.938°2025-05-10 08:27:01.768Z3.9° NNE
|